Погода в Гомеле

Погода в Гомеле : погода сейчас, прогноз погоды и архив. Всё, что Вы хотите узнать о погоде в Гомеле!

Хотите узнать прогноз погоды в Гомеле? Тогда Вам сюда: Погода в Гомеле

Поиск расширенной информации на нашем сайте:

Другие новости

Новости СМИ2

Главная страница сайта

Новости сайта

03.07.2017

Напоминаем, что на нашем специализированном сайте Метеоцентр.Азия вы можете получить высокодетализированные автоматические прогнозы погоды по пунктам России, СНГ и мира в авиационном формате (включающие направление и скорость ветра, видимость, явления погоды, количество и форму облачности, нижнюю и верхнюю границу облачности).


Погода в Гомеле - сегодня

Время (UTC), дата Ветер
(°,м/с) 
Видим.   Явления Облачность Т
(°С)
Тd
(°С)
f(%) Тe
(°С)
Pmin
(гПа)
dP
(гПа)
Po
(мм)
O2
(г/м3)
Тmin Tmax R s Состояние
почвы
18 12.11.18 120 (ЮВ) 22000 м    9/9 1050 м 
[Sc]
-1.5 -5.8 72 -2  1039.7  0.3  767  312    +0.2       
21 12.11.18 150 (ЮВ) 30000 м    ясно 
-2.7 -6.2 77 -5  1040.3  0.5  768  313           
00 13.11.18 130 (ЮВ) 27000 м    ясно 
-3.8 -6.5 81 -6  1040.3  -0.1  768  314           
03 13.11.18 130 (ЮВ) 28000 м    ясно 
-4.7 -7.3 82 -7  1039.9  -0.4  767  315           
06 13.11.18 140 (ЮВ) 35000 м    3/0 верхняя 
[Ci fib]
-5.1 -8.2 79 -7  1040.1  0.1  768  316  -5.5         
09 13.11.18 130 (ЮВ) 35000 м    9/0 средняя, верхняя 
[Ac trans|Ci]
-1.3 -8.1 60 -3  1038.8  -1  767  311           
12 13.11.18 140 (ЮВ) 35000 м    9/0 средняя, верхняя 
[Ac trans|Ci]
+0.9 -7.8 52 -1  1036.6  -2  765  308           
15 13.11.18 150 (ЮВ) 35000 м    9/0 верхняя 
[Ci]
-1.2 -7.4 63 -2  1035.6  -1.2  764  310           
18 13.11.18 130 (ЮВ) 35000 м    9/0 верхняя 
[Ci]
-1.9 -7.9 63 -3  1034.2  -1.4  763  311    +1.3       
21 13.11.18 160 (Ю) 30000 м    9/0 средняя, верхняя 
[Ac trans|Ci]
-1.9 -8 63 -3  1032.4  -1.7  762  310           
00 14.11.18 160 (Ю) 30000 м    10/0 средняя 
[Ac As]
-2.5 -8.2 65 -5  1030.1  -2.3  760  310           
03 14.11.18 140 (ЮВ) 29000 м    10/0 средняя 
[Ac As]
-2.7 -7.8 68 -6  1027  -3.1  758  309           
06 14.11.18 130 (ЮВ) 30000 м    10/6 960 м средняя 
[Sc|Ac As]
-2.7 -7.9 67 -6  1025.5  -1.5  757  309  -2.8         
09 14.11.18 140 (ЮВ) 0600 м  ливневой снег  10/10 400 м кучево-дожд. 
[Cb cap]
-3.6 -5.1 89 -6  1024.6  -0.9  756  309           
12 14.11.18 140 (ЮВ) 8000 м  слаб. ливневой снег  10/10 400 м кучево-дожд. 
[Cb cap]
-2.5 -4.4 87 -5  1023.3  -1.2  755  308           
15 14.11.18 170 (Ю) 8000 м  дымка{ливн. осадки}  10/10 270 м 
[Sc]
-2.2 -3.5 91 -2  1023  -0.3  755  307         
18 14.11.18 140 (ЮВ) 2200 м  слаб. переохл. морось (гололёд){ливн. осадки} [диам. гололёда 0 мм]  10/10 120 м 
[St]
-2 -2.5 96 -1  1023  755  307    -2   
21 14.11.18 140 (ЮВ) 1700 м  слаб. переохл. морось (гололёд) [диам. гололёда 1 мм]  10/10 120 м 
[St]
-1.4 -1.9 96 -2  1024  756  306           
00 15.11.18 100 (В) 8000 м  в посл. час снег{морось} [диам. гололёда 2 мм]  10/10 240 м 
[Sc]
-1.3 -2.2 94 -1  1024.8  0.8  756  307           
03 15.11.18 090 (В) 4200 м  слаб. снег [диам. гололёда 2 мм]  10/10 210 м 
[St]
-1 -1.7 95 1026.1  1.3  757  307      0.4   
06 15.11.18 080 (В) 3400 м  дымка{снег} [диам. гололёда 2 мм]  10/10 100 м 
[St]
-0.5 -1.1 96 1028.5  2.4  759  307  -2    0.6  равномерный
сухой снег
100% 
09 15.11.18 100 (В) 5000 м  в посл. час снег  10/10 240 м 
[Sc]
+0.3 -0.6 94 +1  1030.9  2.4  761  306           
12 15.11.18 100 (В) 17000 м  {снег}  10/8 500 м средняя 
[Sc|Ac As]
+1 -1 86 +2  1032.6  1.7  762  306           
15 15.11.18 050 (СВ) 10 км    10/10 700 м 
[Sc]
+1.3 -0.7 86 +2  1034.9  2.3  764  306      0.2     
18 15.11.18 080 (В) 10 км    9/4 1000 м средняя 
[Sc|Ac und]
-0.3 -2 88 1036.4  1.4  765  309    +1.6  0.2   
Время (UTC), дата Ветер
(°,м/с) 
Видим.   Явления Облачность Т
(°С)
Тd
(°С)
f(%) Тe
(°С)
Pmin
(гПа)
dP
(гПа)
Po
(мм)
O2
(г/м3)
Тmin Tmax R s Состояние
почвы

Для получения пояснительной информации подведите курсор к названию столбца.

ПОГОДА в Гомеле - архив

Всё, что Вы хотите узнать о погоде в Гомеле - удобно и подробно!

Выберите нужную дату (начиная с 1 января 2015* года) и нажмите кнопку "Найти".
Будут отображены архивные сводки погоды по пункту Гомель, начиная с указанной даты.


Отображать данные в формате CSV (для использования в таблицах Excel)


Внимание! Наш архив погоды предназначен исключительно для личного некоммерческого использования в познавательных целях. Если Вам необходимы официальные справки о состоянии погоды (для производственных, юридических, коммерческих и т.п. целей), обращайтесь в органы Росгидромета.

*Примечание: данная дата относится к архиву по метеостанциям СССР (Россия, СНГ, Балтия).
Архив по метеостанциям Зарубежной Европы и Азии (кроме Китая) хранится 10 дней, по другим регионам земного шара (Китай, Африка, Америка, Австралия, Океания) - 1 день.

Гомель - район местоположения метеостанции


Название, широта, долгота, высота метеостанции:
Гомель (город) 52.4°ш. 30.9°д. 126 м над ур. моря [Беларусь]

Дополнительная информация

В oтличие oт бoльшинства пoгoдных сайтoв мы публикуем пoдрoбную метеoинфoрмацию в детальнoм прoфессиoнальнoм фoрмате.

Характеристики температуры и влажнoсти вoздуха измеряются на высoте 2 м в тени вдали oт зданий и деревьев.
Скoрoсть ветра измеряется на высoте 10 м (на урoвне рoста челoвека скoрoсть ветра ниже в 1.5-2 раза). Если метеoстанция нахoдится в гoрoде или в лесу, тo скoрoсть ветра занижена на 2-4 м/с пo сравнению с oткрытым местoм. Скoрoсть ветра над акватoриями крупных рек и oзёр, а также на вершинах хoлмoв на 2-5 м/с выше, чем в oбычных услoвиях.
Атмoсфернoе давление в разных тoчках местнoсти мoжет значительнo oтличаться oт давления на метеoстанции, в зависимoсти oт услoвий рельефа (при пoдъёме на 10 м давление пoнижается примернo на 1 мм рт.ст.).